Location: Great Snoring
(52.8667°N, 0.8833°E)
Time: 06:46:24
(UTC+00:00)

Cosmos 783 Rocket - Pass Details

Date: 19 May 2025
Orbit: 753 x 777 km, 74.1° (Epoch: 18 June)

Event Time Altitude Azimuth Distance (km) Brightness Sun altitude
Exits shadow 22:47:02 17° 205° (SSW) 1,864 6.1 -15.8°
Maximum altitude 22:51:08 88° 292° (WNW) 767 4.5 -15.9°
Drops below altitude 10° 22:56:23 10° 26° (NNE) 2,308 7.7 -16.1°
Sets 22:58:47 0° 26° (NNE) 3,242 8.6 -16.2°
